STARLINK-2618 (48693 NORAD) Tracking and Keplerian Element Data

This shows tracking and keplerian element data for the satellite.

Feedback or suggestion? Click here.




ElementValue
Catalog48693
NameSTARLINK-2618
Epoch Orbit369
Epoch Day214.91667824
Epoch Year2021
RAAN85.9888
Inclination53.0472
Eccentricity0.0002571
Argument of Perigee15.2013
Mean Anonmoly72.9061
Mean Motion15.73179216
Decay Rate-1.83E-06
L11 48693U 21044BH 21214.91667824 -.00000183 00000-0 31342-5 0 9995
L22 48693 53.0472 85.9888 0002571 15.2013 72.9061 15.73179216 3691

Live tracking and technical data element details for STARLINK-2618 (NORAD 48693). STARLINK-2618 can be tracked NOW for your location showing map with azimuth and elevation plus other details from your city location.

Track the satellite on the map from your city or location and see movement details for azimuth, elevation, latitude, longitude, range, height, and movement on the map or in text.







IsCatalogInMostPopularTable: catalog: 48693, numindb: 16
Update: records affected: 1



GetName: 48693 STARLINK-2618

Hit Count: updated at: Tue, 03 Aug 2021 23:27:38 GMT